Change the Weather History Date:

Monday, April 7, 2014

  Actual Average Record
Temperature  
Mean Temperature 50 °F 46 °F  
Max Temperature 62 °F 59 °F 88 °F (1988)
Min Temperature 38 °F 34 °F 12 °F (1936)
Degree Days  
Heating Degree Days 15 19  
Month to date heating degree days 168 140  
Since 1 July heating degree days 6462 6089  
Cooling Degree Days 0 0  
Month to date cooling degree days 0 0  
Year to date cooling degree days 0 0  
Moisture  
Dew Point 33 °F    
Average Humidity 58    
Maximum Humidity 92    
Minimum Humidity 24    
Precipitation  
Precipitation 0.00 in 0.08 in 1.22 in (1998)
Month to date precipitation 0.84 0.53  
Year to date precipitation 1.77 3.65  
Snow  
Snow 0.00 in 0.10 in - ()
Month to date snowfall 3.0 0.9  
Since 1 July snowfall 18.4 28.8  
Snow Depth 0.00 in    
Sea Level Pressure  
Sea Level Pressure 29.87 in    
Wind  
Wind Speed 13 mph (NW)    
Max Wind Speed 29 mph    
Max Gust Speed 36 mph    
Visibility 10 miles    
Events      
T = Trace of Precipitation, MM = Missing Value Source: NWS Daily Summary

Daily Weather History Graph

Daily Weather History Graph

Search for Another Location

Airport or City:

Trip Planner

Search our weather history database for the weather conditions in past years. The results will help you decide how hot, cold, wet, or windy it might be!

Date:

Astronomy

Apr. 07, 2014 Rise Set
Actual Time 7:02 AM CDT 8:02 PM CDT
Civil Twilight 6:33 AM CDT 8:30 PM CDT
Nautical Twilight 5:59 AM CDT 9:04 PM CDT
Astronomical Twilight 5:24 AM CDT 9:40 PM CDT
Moon 12:56 PM CDT (4/7) 2:42 AM CDT (4/7)
Length of Visible Light 13h 56m
Length of Day
12h 59m
First Quarter, 53% of the Moon is Illuminated
Apr 7
First Quarter
Apr 15
Full
Apr 22
Last Quarter
Apr 29
New
May 6
First Quarter

Hourly Weather History & Observations

Time (CDT) Temp. Windchill Dew Point Humidity Pressure Visibility Wind Dir Wind Speed Gust Speed Precip Events Conditions
12:56 AM 52.0 °F - 39.9 °F 63% 29.80 in 10.0 mi NW 12.7 mph - N/A   Overcast
1:56 AM 46.9 °F - 41.0 °F 80% 29.80 in 10.0 mi WNW 13.8 mph - N/A   Overcast
2:56 AM 45.0 °F 40.1 °F 39.9 °F 82% 29.80 in 10.0 mi WNW 9.2 mph - N/A   Clear
3:56 AM 44.1 °F 42.5 °F 39.9 °F 85% 29.80 in 10.0 mi South 3.5 mph - N/A   Overcast
4:56 AM 39.9 °F 37.8 °F 37.9 °F 93% 29.80 in 10.0 mi WSW 3.5 mph - N/A   Scattered Clouds
5:56 AM 41.0 °F 36.4 °F 37.9 °F 89% 29.81 in 10.0 mi NW 6.9 mph - N/A   Clear
6:56 AM 39.9 °F 35.1 °F 36.0 °F 86% 29.83 in 10.0 mi WNW 6.9 mph - N/A   Clear
7:56 AM 42.1 °F 37.7 °F 36.0 °F 79% 29.85 in 10.0 mi WNW 6.9 mph - N/A   Clear
8:56 AM 46.9 °F - 37.9 °F 71% 29.87 in 10.0 mi NW 8.1 mph - N/A   Clear
11:56 AM 55.9 °F - 36.0 °F 47% 29.90 in 10.0 mi NNW 18.4 mph 25.3 mph N/A   Clear
12:56 PM 57.9 °F - 34.0 °F 41% 29.88 in 10.0 mi North 18.4 mph - N/A   Clear
1:56 PM 60.1 °F - 30.9 °F 33% 29.86 in 10.0 mi NNW 17.3 mph 33.4 mph N/A   Partly Cloudy
2:56 PM 62.1 °F - 30.0 °F 30% 29.84 in 10.0 mi North 17.3 mph 29.9 mph N/A   Scattered Clouds
3:56 PM 61.0 °F - 30.0 °F 31% 29.84 in 10.0 mi NNW 19.6 mph 35.7 mph N/A   Mostly Cloudy
4:56 PM 60.1 °F - 28.9 °F 31% 29.86 in 10.0 mi NNW 20.7 mph 31.1 mph N/A   Clear
5:56 PM 60.1 °F - 27.0 °F 28% 29.86 in 10.0 mi North 24.2 mph 29.9 mph N/A   Clear
6:56 PM 57.9 °F - 21.9 °F 25% 29.89 in 10.0 mi North 20.7 mph 32.2 mph N/A   Clear
7:56 PM 54.0 °F - 24.1 °F 31% 29.91 in 10.0 mi NNW 13.8 mph - N/A   Clear
8:56 PM 51.1 °F - 30.0 °F 44% 29.95 in 10.0 mi NW 15.0 mph - N/A   Mostly Cloudy
9:56 PM 50.0 °F - 32.0 °F 50% 29.97 in 10.0 mi NW 19.6 mph - N/A   Scattered Clouds
10:56 PM 46.9 °F - 32.0 °F 56% 29.98 in 10.0 mi NNW 16.1 mph - N/A   Partly Cloudy
11:56 PM 46.0 °F 40.2 °F 32.0 °F 58% 29.99 in 10.0 mi NW 12.7 mph - N/A   Overcast